GPS BIIF-10 (PRN 08)

Last updated on Fri Oct 24 2025 00:03:21 GMT+0000 (Coordinated Universal Time)

1 40730U 15033A 25296.39491776 -.00000029 00000+0 00000+0 0 9996 2 40730 54.1735 276.8432 0107815 25.7292 334.7845 2.00568208 75245
UTC large
Height (km)
Speed (km/s)
/
Latitude / Longitude
Inclination (degrees)
Orbital Period (minutes)
Azimuth
Elevation
Range (km)
Doppler Factor

Next 0 passes for location: London (51.5072 / 0.1276)

Sorry there are no passes over London.